PBO Station Position Time Series. Reference Frame : NAM14
Format Version,1.1.0
4-character ID,PHJX
Station name,HJ_CucapahMX2011
Begin Date, 2011-10-29
End Date, 2019-10-07
Release Date, 2019-10-08
Reference position, 32.4900563800 North Latitude, -115.5504509091 East Longitude, 105.42704 meters elevation,
Date, North (mm), East (mm), Vertical (mm), North Std. Deviation (mm), East Std. Deviation (mm),              Vertical Std. Deviation (mm), Quality,
2011-10-29,0.00, 0.00, 0.00, 1.87, 1.58, 7.21, repro,
2011-10-30,0.05, -0.11, 8.04, 1.89, 1.60, 7.29, repro,
2011-10-31,0.42, 0.13, 9.79, 1.88, 1.58, 7.17, repro,
2011-11-01,-0.44, 0.25, 3.26, 1.89, 1.63, 7.36, repro,
2011-11-02,-0.61, 0.01, 1.79, 1.87, 1.59, 7.18, repro,
2011-11-03,0.12, 0.31, -3.05, 1.92, 1.64, 7.37, repro,
2011-11-04,-1.03, 0.35, 9.74, 1.94, 1.69, 7.48, repro,
2011-11-05,1.09, 0.30, 13.47, 1.94, 1.66, 7.53, repro,
2011-11-06,0.87, 0.16, 2.54, 1.95, 1.65, 7.62, repro,
2011-11-07,-0.26, 1.15, -3.69, 1.92, 1.61, 7.43, repro,
2011-11-08,-0.16, 0.84, -2.83, 1.92, 1.65, 7.53, repro,
2011-11-09,0.91, 0.72, -9.65, 2.01, 1.67, 7.69, repro,
2011-11-11,-0.74, -1.44, 5.30, 1.91, 1.58, 7.26, repro,
2011-11-12,-1.29, -0.29, 9.75, 1.93, 1.64, 7.59, repro,
2011-11-13,0.26, -0.35, 0.66, 1.88, 1.60, 7.28, repro,
2011-11-14,1.20, 1.24, 7.92, 1.93, 1.64, 7.62, repro,
2011-11-15,0.13, 0.93, 7.48, 1.93, 1.64, 7.56, repro,
2011-11-16,0.13, 0.31, -2.70, 2.01, 1.64, 7.81, repro,
2011-11-17,0.16, 0.27, -4.80, 2.00, 1.60, 7.69, repro,
2011-11-18,-1.27, 0.04, 1.26, 1.93, 1.64, 7.58, repro,
2011-11-19,-0.66, 2.00, 6.69, 1.92, 1.64, 7.39, repro,
2011-11-20,0.85, 0.19, 2.77, 1.87, 1.59, 7.23, repro,
2011-11-21,-1.19, 0.17, -2.47, 1.89, 1.58, 7.18, repro,
2011-11-22,-1.48, 0.23, -6.06, 1.91, 1.61, 7.33, repro,
2011-11-23,-1.20, -0.12, -6.85, 2.08, 1.63, 7.91, repro,
2011-11-24,-2.34, 0.05, -0.21, 1.86, 1.58, 7.14, repro,
2011-11-25,-1.16, -0.36, 1.35, 2.00, 1.65, 7.76, repro,
2011-11-26,-0.90, 0.20, 1.39, 1.88, 1.59, 7.20, repro,
2011-11-27,-0.12, 1.45, -4.26, 1.90, 1.63, 7.38, repro,
2011-11-28,-1.36, 0.57, -8.39, 1.90, 1.63, 7.39, repro,
2011-11-29,-2.01, 0.98, -0.99, 1.87, 1.58, 7.17, repro,
2011-11-30,-1.83, -0.94, 1.10, 1.96, 1.64, 7.55, repro,
2011-12-01,-2.65, -0.28, -10.11, 1.88, 1.59, 7.21, repro,
2011-12-02,-1.08, -1.09, 0.17, 1.97, 1.67, 7.50, repro,
2011-12-03,-0.18, 0.44, -5.53, 1.93, 1.67, 7.48, repro,
2011-12-04,-1.10, 0.68, -2.37, 1.91, 1.63, 7.39, repro,
2011-12-05,-1.04, 0.66, -5.45, 1.88, 1.62, 7.29, repro,
2011-12-06,0.16, -0.72, -2.93, 1.88, 1.61, 7.27, repro,
2011-12-07,-0.45, -0.49, -2.39, 1.88, 1.62, 7.31, repro,
2011-12-08,-0.16, 0.45, 1.28, 1.89, 1.62, 7.31, repro,
2011-12-09,-1.86, 0.94, -2.08, 1.95, 1.64, 7.41, repro,
2011-12-10,-2.15, 0.16, 0.38, 1.90, 1.62, 7.37, repro,
2011-12-11,-1.64, 0.25, 0.87, 1.88, 1.62, 7.32, repro,
2011-12-12,-2.73, -1.19, 3.28, 1.88, 1.62, 7.33, repro,
2011-12-13,-1.49, -0.13, 1.87, 1.90, 1.63, 7.38, repro,
2011-12-14,-1.23, 0.44, -0.47, 1.87, 1.58, 7.18, repro,
2011-12-15,-1.16, 0.31, -1.66, 1.95, 1.64, 7.40, repro,
2011-12-16,-2.74, 0.24, -5.94, 1.94, 1.65, 7.43, repro,
2011-12-17,-2.10, 1.16, -3.07, 1.82, 1.56, 7.10, repro,
2011-12-18,-2.24, 1.12, -2.40, 1.83, 1.57, 7.17, repro,
2011-12-19,-2.70, 0.42, 4.04, 1.91, 1.64, 7.35, repro,
2011-12-20,-2.08, 1.23, -2.67, 1.93, 1.69, 7.57, repro,
2011-12-21,-2.32, 0.60, 4.90, 1.84, 1.56, 7.16, repro,
2011-12-22,-1.81, 1.26, -2.73, 1.86, 1.60, 7.23, repro,
2011-12-23,-1.60, 0.44, -3.77, 1.86, 1.61, 7.27, repro,
2011-12-24,-0.79, 0.95, -0.75, 2.00, 1.73, 7.84, repro,
2011-12-25,-1.78, 0.01, -8.22, 1.90, 1.66, 7.37, repro,
2011-12-26,-1.90, 0.79, 2.44, 1.87, 1.61, 7.28, repro,
2011-12-27,-2.08, 0.76, -3.18, 1.86, 1.61, 7.26, repro,
2011-12-28,-1.33, 0.68, -3.60, 1.92, 1.62, 7.52, repro,
2011-12-29,-0.31, 0.54, 5.20, 1.87, 1.62, 7.30, repro,
2011-12-30,-0.54, 0.50, 3.37, 1.86, 1.61, 7.27, repro,
2011-12-31,-0.32, 1.54, 3.76, 1.85, 1.56, 7.12, repro,
2012-01-01,-1.04, 0.81, 0.69, 1.83, 1.56, 7.09, repro,
2012-01-02,-0.65, 0.55, -7.23, 1.87, 1.60, 7.24, repro,
2012-01-03,-0.59, -0.22, 1.00, 1.86, 1.61, 7.28, repro,
2012-01-04,-0.33, 0.63, 1.37, 1.86, 1.61, 7.28, repro,
2012-01-05,-0.77, 0.49, 1.42, 1.86, 1.60, 7.23, repro,
2012-01-06,-1.22, 0.57, 5.77, 1.84, 1.56, 7.11, repro,
2012-01-07,-1.43, 0.27, 2.29, 1.85, 1.60, 7.22, repro,
2012-01-08,-0.82, 0.43, 6.49, 1.85, 1.57, 7.19, repro,
2012-01-09,-0.44, -0.08, 0.57, 1.87, 1.61, 7.32, repro,
2012-01-10,-1.43, 0.68, 3.68, 1.87, 1.63, 7.40, repro,
2012-01-11,-1.82, 0.57, 3.05, 1.87, 1.64, 7.45, repro,
2012-01-12,-1.15, 1.50, 2.08, 1.83, 1.56, 7.14, repro,
2012-01-13,-0.85, 0.37, 4.56, 1.87, 1.63, 7.37, repro,
2012-01-14,-2.09, 0.52, 0.09, 1.86, 1.60, 7.33, repro,
2012-01-15,-1.30, -0.63, 0.61, 1.83, 1.56, 7.15, repro,
2012-01-16,-0.91, -0.61, 2.52, 1.84, 1.57, 7.15, repro,
2012-01-17,-0.62, 0.28, 2.53, 1.84, 1.59, 7.25, repro,
2012-01-18,0.13, 0.37, 2.65, 1.87, 1.63, 7.36, repro,
2012-01-19,-0.85, 0.38, 4.64, 1.89, 1.63, 7.42, repro,
2012-01-20,-1.71, -1.09, -0.22, 1.84, 1.56, 7.17, repro,
2012-01-21,-2.56, -3.89, 9.78, 1.86, 1.61, 7.36, repro,
2012-01-22,-0.85, -0.12, 2.34, 1.85, 1.59, 7.29, repro,
2012-01-23,-1.58, 0.54, 5.62, 1.87, 1.64, 7.41, repro,
2012-01-24,0.12, 1.61, 2.43, 1.88, 1.63, 7.47, repro,
2012-01-25,-1.39, 0.03, -0.33, 1.93, 1.67, 7.65, repro,
2012-01-26,-1.02, -0.47, 3.58, 1.92, 1.73, 7.80, repro,
2012-01-27,-1.91, 1.56, 2.90, 1.85, 1.59, 7.28, repro,
2012-01-28,-1.50, 1.40, 3.66, 1.83, 1.56, 7.16, repro,
2012-01-29,-0.76, 1.31, 3.56, 1.86, 1.62, 7.38, repro,
2012-01-30,-1.85, 0.39, 5.24, 1.86, 1.58, 7.29, repro,
2012-01-31,-1.17, 1.73, 5.23, 1.97, 1.71, 7.92, repro,
2012-02-01,-2.41, 0.73, 9.50, 1.86, 1.59, 7.30, repro,
2012-02-02,-1.17, 0.61, 4.83, 1.87, 1.64, 7.44, repro,
2012-02-03,-1.93, 0.96, 5.69, 1.85, 1.60, 7.31, repro,
2012-02-04,-1.61, 1.42, 3.81, 1.98, 1.76, 8.15, repro,
2012-02-05,-2.23, 1.57, 3.27, 1.92, 1.73, 7.80, repro,
2012-02-06,-0.60, 0.71, 5.20, 1.90, 1.67, 7.64, repro,
2012-02-07,-1.19, 1.21, 1.03, 1.93, 1.65, 7.67, repro,
2012-02-08,-1.77, 0.48, 2.92, 1.85, 1.59, 7.28, repro,
2012-02-09,-2.87, 0.75, -0.44, 1.86, 1.60, 7.29, repro,
2012-02-10,-1.33, 1.38, 3.59, 1.85, 1.59, 7.18, repro,
2012-02-11,-1.90, -0.07, 5.36, 1.88, 1.61, 7.29, repro,
2012-02-12,-2.59, -0.94, 7.81, 1.88, 1.61, 7.26, repro,
2012-02-13,-1.37, 1.60, 6.29, 1.87, 1.60, 7.27, repro,
2012-02-14,-4.02, -2.30, 1.59, 1.88, 1.61, 7.33, repro,
2012-02-15,-1.29, 1.44, 5.60, 1.88, 1.61, 7.32, repro,
2012-02-16,-1.70, 0.42, -2.10, 1.86, 1.59, 7.20, repro,
2012-02-17,-2.17, 1.29, 1.45, 1.86, 1.61, 7.23, repro,
2012-02-18,-2.23, 1.54, 1.44, 1.86, 1.60, 7.25, repro,
2012-02-19,-0.54, 1.23, 12.73, 1.88, 1.61, 7.31, repro,
2012-02-20,-0.69, 1.29, 0.93, 1.87, 1.60, 7.27, repro,
2012-02-21,-1.33, -0.19, 6.48, 1.89, 1.62, 7.35, repro,
2012-02-22,-0.35, -0.75, 5.40, 1.88, 1.63, 7.29, repro,
2012-02-23,-2.10, 0.76, 12.06, 1.86, 1.60, 7.21, repro,
2012-02-24,-1.55, 1.30, 6.99, 1.85, 1.57, 7.21, repro,
2012-02-25,-0.26, 1.62, 5.11, 1.87, 1.59, 7.32, repro,
2012-02-26,-1.47, 1.61, 6.58, 1.90, 1.62, 7.42, repro,
2012-02-27,-2.28, 0.03, 5.48, 1.91, 1.61, 7.38, repro,
2012-02-28,-4.14, -1.51, -7.69, 1.92, 1.63, 7.44, repro,
2012-02-29,-2.57, 1.24, 5.98, 1.85, 1.57, 7.20, repro,
2012-03-01,-0.80, 2.16, -0.29, 1.90, 1.58, 7.31, repro,
2012-03-02,-0.31, -0.56, 8.82, 1.94, 1.62, 7.44, repro,
2012-03-03,0.19, 1.45, 1.41, 1.87, 1.59, 7.23, repro,
2012-03-04,-0.42, 0.99, 2.51, 1.88, 1.60, 7.25, repro,
2012-03-05,-1.02, 1.48, -2.46, 1.95, 1.65, 7.50, repro,
2012-03-06,-2.04, 1.03, 1.93, 1.96, 1.69, 7.58, repro,
2012-03-07,-0.80, 0.67, 3.69, 1.93, 1.60, 7.39, repro,
2012-03-08,-2.01, 1.60, 5.59, 1.91, 1.59, 7.35, repro,
2012-03-09,-0.37, 0.69, -6.65, 1.98, 1.70, 7.69, repro,
2012-03-10,-2.18, 0.91, 4.99, 2.08, 1.77, 8.07, repro,
2012-03-11,-0.81, 0.68, 5.63, 1.94, 1.64, 7.52, repro,
2012-03-12,-2.23, 0.64, 5.55, 2.00, 1.71, 7.70, repro,
2012-03-13,-2.02, 1.17, 2.55, 1.89, 1.57, 7.27, repro,
2012-03-14,-0.56, 0.59, 2.02, 1.90, 1.62, 7.41, repro,
2012-03-15,-1.77, 0.46, -2.39, 1.98, 1.61, 7.57, repro,
2012-03-16,-1.35, 0.73, 0.83, 1.95, 1.73, 7.67, repro,
2012-03-17,-3.08, 0.64, -11.58, 1.91, 1.58, 7.31, repro,
2012-03-18,-0.59, 0.65, 2.22, 1.98, 1.64, 7.67, repro,
2012-03-19,0.86, 0.83, 0.57, 1.85, 1.56, 7.25, repro,
2012-03-20,-0.77, 0.23, -1.05, 1.84, 1.56, 7.22, repro,
2012-03-21,-1.70, 0.92, 0.10, 1.89, 1.61, 7.41, repro,
2012-03-22,-1.64, 1.69, -0.51, 1.90, 1.58, 7.31, repro,
2012-03-23,-1.88, 2.61, 2.12, 1.96, 1.63, 7.46, repro,
2012-03-24,-2.34, -0.02, 7.41, 1.91, 1.57, 7.35, repro,
2012-03-25,0.02, 0.41, 6.04, 1.85, 1.56, 7.25, repro,
2012-03-26,-1.92, -2.41, -0.50, 1.89, 1.60, 7.38, repro,
2012-03-27,-1.21, 1.71, -1.90, 1.90, 1.58, 7.30, repro,
2012-03-28,-1.33, 1.05, 2.69, 1.91, 1.58, 7.32, repro,
2012-03-29,-0.90, 0.41, 1.26, 1.90, 1.58, 7.33, repro,
2012-03-30,-1.58, 1.01, 4.22, 1.89, 1.57, 7.30, repro,
2012-03-31,-1.13, 1.15, 12.76, 1.83, 1.56, 7.18, repro,
2012-04-01,-4.32, -0.75, 10.05, 1.86, 1.57, 7.26, repro,
2012-04-02,-2.72, 1.32, 7.57, 1.84, 1.56, 7.21, repro,
2012-04-03,-2.70, 1.37, -0.66, 1.85, 1.56, 7.20, repro,
2012-04-04,-1.83, 2.48, 6.63, 1.84, 1.55, 7.19, repro,
2012-04-05,-2.87, 1.56, -0.67, 1.86, 1.59, 7.32, repro,
2012-04-06,-2.02, 1.78, 7.48, 1.88, 1.59, 7.34, repro,
2012-04-07,-2.72, 2.06, 1.20, 1.82, 1.56, 7.20, repro,
2012-04-08,-2.58, 2.52, 5.07, 1.84, 1.56, 7.23, repro,
2012-04-09,-2.84, 2.11, 6.15, 1.91, 1.64, 7.53, repro,
2012-04-10,-3.02, 1.04, 7.03, 1.83, 1.54, 7.16, repro,
2012-04-11,-4.96, -0.02, 1.66, 1.84, 1.56, 7.26, repro,
2012-04-12,-3.51, 2.62, 2.26, 1.85, 1.60, 7.30, repro,
2012-04-13,-1.82, 1.31, 0.38, 1.86, 1.56, 7.28, repro,
2012-04-14,-3.66, 1.18, 0.83, 1.87, 1.58, 7.33, repro,
2012-04-15,-1.87, 2.01, 0.16, 1.84, 1.54, 7.16, repro,
2012-04-16,-2.21, 2.18, 1.07, 1.83, 1.54, 7.15, repro,
2012-04-17,-1.46, 1.79, -0.51, 1.84, 1.56, 7.22, repro,
2012-04-18,-2.39, 2.90, 10.14, 1.83, 1.56, 7.20, repro,
2012-04-19,-2.49, 1.51, 1.14, 1.84, 1.55, 7.16, repro,
2012-04-20,-2.63, 2.48, -0.43, 1.85, 1.55, 7.21, repro,
2012-04-21,-0.85, 2.90, 0.22, 1.84, 1.55, 7.14, repro,
2012-04-22,-2.67, 2.35, 4.79, 1.83, 1.54, 7.12, repro,
2012-04-23,-3.05, 2.08, 6.76, 1.83, 1.55, 7.17, repro,
2012-04-24,-1.95, 2.86, 1.38, 1.87, 1.62, 7.31, repro,
2012-04-25,-2.44, 0.97, 1.44, 1.95, 1.75, 7.71, repro,
2012-04-26,-7.66, 0.07, 16.92, 1.91, 1.59, 7.42, repro,
2012-04-27,-2.59, 1.17, 3.52, 1.90, 1.56, 7.41, repro,
2012-04-28,-1.72, 1.88, 6.00, 1.84, 1.55, 7.15, repro,
2012-04-29,-3.30, 3.45, -2.57, 1.98, 1.64, 7.75, repro,
2012-04-30,-2.70, 2.78, 4.81, 1.84, 1.56, 7.19, repro,
2012-05-01,-3.37, 2.57, 13.30, 1.87, 1.61, 7.37, repro,
2012-05-02,-3.82, 1.95, 6.43, 1.85, 1.60, 7.37, repro,
2012-05-03,-3.24, 2.12, 4.68, 1.86, 1.60, 7.40, repro,
2012-05-04,-3.43, 3.38, 1.41, 1.84, 1.57, 7.24, repro,
2012-05-05,-3.16, 3.14, 0.03, 1.83, 1.56, 7.18, repro,
2012-05-06,-2.42, 3.06, 3.26, 1.90, 1.65, 7.41, repro,
2012-05-07,-3.28, 2.06, 10.38, 1.88, 1.60, 7.36, repro,
2012-05-08,-3.22, 1.38, 11.19, 1.86, 1.61, 7.40, repro,
2012-05-09,-3.09, 2.31, 3.47, 1.87, 1.62, 7.47, repro,
2012-05-10,-3.08, 2.44, -0.89, 1.83, 1.56, 7.21, repro,
2012-05-11,-2.68, 2.17, -1.43, 1.84, 1.55, 7.17, repro,
2012-05-12,-1.92, 1.74, 2.72, 1.84, 1.55, 7.14, repro,
2012-05-13,-3.01, 2.32, 1.99, 1.85, 1.59, 7.34, repro,
2012-05-14,-2.45, 2.95, 5.91, 1.85, 1.60, 7.37, repro,
2012-05-15,-3.42, 2.25, 4.15, 1.87, 1.64, 7.59, repro,
2012-05-16,-3.75, 2.49, 6.52, 1.84, 1.57, 7.26, repro,
2012-05-17,-2.75, 1.27, 7.74, 1.89, 1.60, 7.28, repro,
2012-05-18,-2.53, 1.25, 3.46, 1.91, 1.64, 7.47, repro,
2012-05-19,-1.23, 2.40, 10.91, 1.89, 1.64, 7.50, repro,
2012-05-20,-2.51, 1.77, 9.87, 1.87, 1.61, 7.40, repro,
2012-05-21,-2.32, 2.08, 10.87, 1.87, 1.60, 7.39, repro,
2012-05-22,-2.36, 1.28, 4.07, 1.87, 1.59, 7.36, repro,
2012-05-23,-1.75, 2.25, 12.39, 1.88, 1.59, 7.34, repro,
2012-05-24,-1.95, 1.02, 17.53, 1.90, 1.64, 7.40, repro,
2012-05-25,-3.59, 1.28, 13.31, 1.86, 1.60, 7.34, repro,
2012-05-26,-5.41, 2.08, 9.51, 1.92, 1.67, 7.60, repro,
2012-05-27,-1.32, 1.45, 2.65, 1.84, 1.56, 7.22, repro,
2012-05-28,-1.97, 2.67, 13.70, 1.84, 1.55, 7.17, repro,
2012-05-29,-2.99, 1.71, 9.17, 1.83, 1.54, 7.12, repro,
2012-05-30,-0.46, 3.68, 13.23, 1.83, 1.54, 7.14, repro,
2012-05-31,-2.51, 2.24, 7.64, 1.84, 1.57, 7.25, repro,
2012-06-01,-2.21, 2.57, 12.87, 1.87, 1.58, 7.32, repro,
2012-06-02,-3.10, 2.52, 13.38, 1.88, 1.58, 7.32, repro,
2012-06-03,-1.05, 3.95, 13.61, 1.85, 1.55, 7.21, repro,
2012-06-04,-1.86, 2.42, 13.29, 1.84, 1.55, 7.20, repro,
2012-06-05,-1.83, 2.33, 6.08, 1.83, 1.54, 7.15, repro,
2012-06-06,-2.46, 2.39, 10.20, 1.83, 1.56, 7.22, repro,
2012-06-07,-1.61, 2.87, 4.07, 1.85, 1.57, 7.28, repro,
2012-06-08,-0.27, 3.32, 5.77, 1.84, 1.55, 7.16, repro,
2012-06-09,-1.65, 2.73, 13.82, 1.85, 1.55, 7.16, repro,
2012-06-10,-1.77, 2.59, 9.66, 1.83, 1.55, 7.16, repro,
2012-06-11,-1.72, 3.11, 6.37, 1.90, 1.57, 7.33, repro,
2012-06-12,-4.91, 1.35, 6.86, 1.84, 1.56, 7.20, repro,
2012-06-13,-1.81, 4.10, 10.15, 1.86, 1.57, 7.24, repro,
2012-06-14,-1.27, 1.88, 17.56, 1.85, 1.55, 7.17, repro,
2012-06-15,-1.12, 1.90, 16.50, 1.84, 1.54, 7.18, repro,
2012-06-16,-1.30, 4.05, 7.11, 1.84, 1.55, 7.22, repro,
2012-06-17,-2.09, 3.88, 6.81, 1.84, 1.56, 7.22, repro,
2012-06-18,-1.49, 2.93, 12.27, 1.84, 1.55, 7.17, repro,
2012-06-19,-1.77, 1.03, 8.36, 1.87, 1.58, 7.26, repro,
2012-06-20,-0.75, 2.47, 15.11, 1.85, 1.54, 7.20, repro,
2012-06-21,0.03, 1.88, 11.38, 1.86, 1.57, 7.35, repro,
2012-06-22,-3.59, 3.06, 7.08, 1.86, 1.57, 7.34, repro,
2012-06-23,-3.12, 2.17, 6.34, 1.84, 1.56, 7.24, repro,
2012-06-24,-2.42, 2.37, 2.19, 1.84, 1.55, 7.19, repro,
2012-06-25,-3.60, 1.13, 4.45, 1.84, 1.55, 7.18, repro,
2012-06-26,-3.08, 0.05, 11.55, 1.83, 1.54, 7.17, repro,
2012-06-27,-2.84, 1.67, 8.94, 1.84, 1.55, 7.22, repro,
2012-06-28,-1.83, 4.15, 3.94, 1.86, 1.57, 7.27, repro,
2012-06-29,-0.75, 2.99, 7.28, 1.85, 1.56, 7.27, repro,
2012-06-30,-1.13, 2.22, 8.96, 1.84, 1.55, 7.18, repro,
2012-07-01,-1.19, 2.38, 9.96, 1.84, 1.55, 7.17, repro,
2012-07-02,-0.03, 3.19, 16.13, 1.88, 1.66, 7.61, repro,
2012-07-03,-1.56, 4.73, 16.28, 1.88, 1.57, 7.38, repro,
2012-07-04,-3.96, 2.53, 5.91, 1.89, 1.59, 7.53, repro,
2012-07-05,-2.40, 2.55, 7.31, 1.90, 1.63, 7.42, repro,
2012-07-06,-0.97, 0.98, 1.70, 1.87, 1.60, 7.29, repro,
2012-07-07,-1.07, 4.53, 5.95, 1.84, 1.55, 7.17, repro,
2012-07-08,-1.35, 3.50, 9.86, 1.84, 1.55, 7.21, repro,
2012-07-09,-1.41, 2.98, 7.35, 1.86, 1.56, 7.29, repro,
2012-07-10,-1.90, 3.61, 10.00, 1.86, 1.56, 7.27, repro,
2012-07-11,-2.18, 1.90, 14.06, 1.91, 1.58, 7.34, repro,
2012-07-12,-2.45, 3.82, 8.67, 1.85, 1.57, 7.31, repro,
2012-07-13,-2.63, 2.75, 12.45, 2.11, 1.80, 8.25, repro,
2012-07-14,-1.55, 5.20, 11.72, 1.98, 1.65, 7.60, repro,
2012-07-15,-2.47, 3.05, 6.83, 1.86, 1.57, 7.35, repro,
2012-07-16,-6.30, 3.46, 4.08, 1.96, 1.62, 7.59, repro,
2012-07-17,-2.56, 3.15, 4.46, 1.83, 1.55, 7.14, repro,
2012-07-18,-2.80, 2.54, 9.60, 1.86, 1.61, 7.41, repro,
2012-07-19,-1.04, 3.32, 8.37, 1.85, 1.55, 7.24, repro,
2012-07-20,-2.65, 3.33, 6.96, 1.86, 1.58, 7.38, repro,
2012-07-21,-2.44, 3.71, 8.35, 1.84, 1.55, 7.24, repro,
2012-07-22,-3.07, 2.95, 3.54, 1.91, 1.57, 7.41, repro,
2012-07-23,-2.25, 2.55, 7.74, 1.84, 1.55, 7.18, repro,
2012-07-24,-1.58, 4.97, 9.81, 1.85, 1.55, 7.23, repro,
2012-07-25,-3.06, 3.63, 14.56, 1.86, 1.55, 7.28, repro,
2012-07-26,0.01, 3.06, 14.96, 1.88, 1.57, 7.36, repro,
2012-07-27,-5.52, 3.84, 18.89, 2.06, 1.80, 8.09, repro,
2012-07-28,-2.00, 4.78, 9.64, 1.87, 1.56, 7.31, repro,
2012-07-29,-1.73, 4.27, 15.11, 1.93, 1.58, 7.59, repro,
2012-07-30,-5.43, 3.64, 13.04, 1.91, 1.65, 7.49, repro,
2012-07-31,-4.16, 3.41, 8.15, 1.89, 1.60, 7.50, repro,
2012-08-01,-4.48, 2.30, -2.41, 1.89, 1.63, 7.40, repro,
2012-08-02,-2.73, 2.75, 7.59, 1.84, 1.54, 7.19, repro,
2012-08-03,-2.67, 2.20, 12.03, 1.86, 1.56, 7.30, repro,
2012-08-04,-3.80, 3.09, 9.10, 1.85, 1.54, 7.19, repro,
2012-08-05,-1.24, 5.18, 8.40, 1.85, 1.56, 7.25, repro,
2012-08-06,-3.71, 1.82, 8.29, 1.85, 1.57, 7.32, repro,
2012-08-07,-1.27, 3.33, 14.47, 1.86, 1.56, 7.24, repro,
2012-08-08,-2.29, 4.14, 14.27, 1.91, 1.57, 7.48, repro,
2012-08-09,-3.61, 3.67, 17.97, 1.86, 1.56, 7.26, repro,
2012-08-10,-2.63, 2.57, 11.99, 1.87, 1.57, 7.34, repro,
2012-08-11,-1.85, 5.38, 12.56, 1.88, 1.58, 7.35, repro,
2012-08-12,0.30, 3.30, 14.94, 1.92, 1.63, 7.45, repro,
2012-08-13,-1.56, 5.13, 16.82, 2.01, 1.61, 7.67, repro,
2012-08-14,-4.60, 2.92, 15.44, 1.93, 1.58, 7.38, repro,
2012-08-15,-4.62, 3.35, 16.19, 1.93, 1.59, 7.64, repro,
2012-08-16,-2.61, 3.32, 11.31, 1.96, 1.61, 7.68, repro,
2012-08-17,-4.84, 2.40, 14.23, 2.03, 1.65, 8.08, repro,
2012-08-18,-3.97, 3.82, 14.30, 1.88, 1.57, 7.44, repro,
2012-08-19,-3.57, 3.45, 8.93, 1.84, 1.54, 7.16, repro,
2012-08-20,-4.96, 2.85, 18.27, 1.97, 1.67, 7.75, repro,
2012-08-21,-2.81, 3.01, 14.37, 1.85, 1.55, 7.23, repro,
2012-08-22,0.04, 2.08, 12.29, 2.00, 1.67, 7.84, repro,
2012-08-23,-1.93, 1.32, 12.24, 1.98, 1.61, 7.58, repro,
2012-08-24,-2.63, 3.62, 14.00, 1.94, 1.62, 7.47, repro,
2012-08-25,-0.72, 3.59, 15.05, 1.86, 1.55, 7.23, repro,
2012-08-26,-4.20, 2.66, 20.12, 1.91, 1.64, 7.46, repro,
2012-08-27,-3.06, 2.97, 14.06, 1.83, 1.55, 7.17, repro,
2012-08-28,-1.53, 3.14, 16.07, 1.89, 1.62, 7.39, repro,
2012-08-29,-1.82, 2.83, 22.40, 1.99, 1.72, 7.65, repro,
2012-08-30,-0.39, 4.81, 24.90, 1.89, 1.59, 7.43, repro,
2012-08-31,-3.06, 3.35, 13.17, 1.85, 1.56, 7.26, repro,
2012-09-01,-5.38, 1.78, 9.55, 1.91, 1.61, 7.44, repro,
2012-09-02,-3.54, 1.60, 15.37, 1.83, 1.55, 7.19, repro,
2012-09-03,-1.98, 1.63, 11.24, 2.13, 1.77, 8.29, repro,
2012-09-04,-2.94, 1.06, 12.42, 1.89, 1.60, 7.40, repro,
2012-09-05,-2.37, 2.85, 15.49, 1.85, 1.56, 7.29, repro,
2012-09-06,0.53, 4.93, 16.04, 1.87, 1.61, 7.43, repro,
2012-09-07,-2.88, 2.37, 10.81, 1.88, 1.64, 7.36, repro,
2012-09-08,-4.33, 3.37, 23.01, 1.82, 1.55, 7.15, repro,
2012-09-09,-4.46, 3.38, 15.52, 1.88, 1.61, 7.40, repro,
2012-09-10,-3.98, 3.66, 3.28, 2.06, 1.73, 8.10, repro,
2012-09-11,-2.25, 3.24, 9.60, 1.91, 1.62, 7.51, repro,
2012-09-12,-4.23, 2.97, 8.23, 1.88, 1.60, 7.33, repro,
2012-09-13,-4.10, 0.86, -8.00, 2.03, 1.65, 7.77, repro,
2012-09-14,-2.39, 3.47, 10.05, 1.89, 1.63, 7.48, repro,
2012-09-15,-3.17, 2.78, 9.79, 1.85, 1.57, 7.27, repro,
2012-09-16,-4.96, 1.45, 14.51, 1.96, 1.64, 7.50, repro,
2012-09-17,-5.51, 1.53, 8.15, 1.89, 1.63, 7.49, repro,
2012-09-18,-4.09, 1.66, 15.14, 1.83, 1.56, 7.18, repro,
2012-09-19,-2.60, 4.49, 14.61, 1.84, 1.55, 7.17, repro,
2012-09-20,-1.44, 3.48, 19.57, 1.86, 1.56, 7.24, repro,
2012-09-21,-1.05, 2.33, 11.08, 1.86, 1.57, 7.31, repro,
2012-09-22,-2.58, 2.46, 15.10, 1.84, 1.56, 7.23, repro,
2012-09-23,-2.45, 3.46, 19.89, 1.83, 1.55, 7.17, repro,
2012-09-24,-2.69, 4.30, 14.06, 1.89, 1.58, 7.31, repro,
2012-09-25,-4.16, 3.51, 11.75, 1.87, 1.59, 7.37, repro,
2012-09-26,-1.28, 3.96, 15.58, 1.85, 1.56, 7.25, repro,
2012-09-27,-2.30, 2.79, 10.01, 1.92, 1.62, 7.71, repro,
2012-09-28,-1.59, 2.16, 10.86, 1.87, 1.58, 7.34, repro,
2012-09-29,-3.23, 3.95, 9.04, 1.83, 1.54, 7.14, repro,
2012-09-30,-2.93, 4.28, 7.81, 1.88, 1.61, 7.31, repro,
2012-10-01,-2.76, 3.77, 8.65, 1.85, 1.55, 7.21, repro,
2012-10-02,-2.54, 3.98, 12.06, 1.83, 1.56, 7.22, repro,
2012-10-03,-2.57, 2.46, 14.28, 1.84, 1.57, 7.31, repro,
2012-10-04,-5.03, 0.70, 9.28, 1.83, 1.55, 7.18, repro,
2012-10-05,-3.37, 3.39, 8.96, 1.84, 1.55, 7.20, repro,
2012-10-06,-3.47, 3.92, 10.33, 1.85, 1.55, 7.22, repro,
2012-10-07,-1.97, 4.14, 10.92, 1.89, 1.62, 7.36, repro,
2012-10-08,-2.85, 3.70, 16.12, 1.87, 1.58, 7.26, repro,
2012-10-09,-2.92, 2.21, 20.82, 1.96, 1.69, 7.65, repro,
2012-10-10,-2.80, 3.03, 12.78, 1.87, 1.57, 7.23, repro,
2012-10-11,-5.84, 3.94, 10.06, 1.87, 1.58, 7.26, repro,
2012-10-12,-3.91, 2.72, 9.07, 1.86, 1.58, 7.22, repro,
2012-10-13,-2.59, 3.35, 8.70, 1.87, 1.58, 7.22, repro,
2012-10-14,-2.17, 2.46, 12.99, 1.87, 1.58, 7.22, repro,
2012-10-15,-3.11, 3.77, 14.78, 1.86, 1.57, 7.23, repro,
2012-10-16,-3.67, 3.74, 15.66, 1.87, 1.57, 7.24, repro,
2012-10-17,-3.09, 3.97, 20.38, 1.86, 1.58, 7.22, repro,
2012-10-18,-1.92, 4.21, 13.14, 1.92, 1.65, 7.53, repro,
2012-10-19,-1.01, 4.60, 15.40, 1.88, 1.59, 7.28, repro,
2012-10-20,-3.56, 3.74, 17.23, 1.88, 1.64, 7.41, repro,
2012-10-21,-4.94, 4.75, 12.35, 1.87, 1.59, 7.28, repro,
2012-10-22,-5.06, 3.45, 6.92, 1.85, 1.58, 7.24, repro,
2012-10-23,-3.99, 4.14, 17.06, 1.89, 1.65, 7.50, repro,
2012-10-24,-2.61, 4.72, 15.94, 1.90, 1.60, 7.34, repro,
2012-10-25,-3.22, 5.07, 9.99, 1.90, 1.63, 7.44, repro,
2012-10-26,-3.04, 3.27, 7.82, 1.90, 1.62, 7.36, repro,
2012-10-27,-3.97, 2.85, 6.75, 1.86, 1.58, 7.25, repro,
2012-10-28,-3.48, 3.88, 8.41, 1.88, 1.62, 7.41, repro,
2012-10-29,-3.82, 3.39, 11.34, 1.86, 1.58, 7.24, repro,
2012-10-30,-3.17, 3.34, 11.99, 1.91, 1.59, 7.50, repro,
2012-10-31,-2.98, 3.47, 10.84, 1.92, 1.63, 7.50, repro,
2012-11-01,-3.68, 4.56, 9.02, 1.94, 1.64, 7.65, repro,
2012-11-02,-2.75, 2.99, 10.46, 1.94, 1.69, 7.74, repro,
2012-11-03,-3.54, 3.01, 11.02, 1.93, 1.63, 7.59, repro,
2012-11-04,-3.34, 3.01, 2.78, 2.00, 1.65, 7.81, repro,
2012-11-05,-2.15, 3.69, 13.97, 2.26, 1.85, 8.70, repro,
2012-11-06,-3.64, 4.33, 8.99, 2.06, 1.69, 7.93, repro,
2012-11-07,-4.65, 3.89, 11.55, 1.99, 1.64, 7.76, repro,
2012-11-08,-3.89, 4.80, 1.67, 1.91, 1.62, 7.47, repro,
2012-11-09,-5.53, 0.00, -0.89, 2.00, 1.73, 7.88, repro,
2012-11-10,-5.28, 1.90, -4.62, 1.95, 1.65, 7.58, repro,
2012-11-11,-3.26, 3.38, 0.71, 1.91, 1.63, 7.43, repro,
2012-11-12,-3.24, 3.65, 3.28, 1.95, 1.68, 7.54, repro,
2012-11-13,-4.80, 3.78, 1.96, 2.05, 1.72, 8.04, repro,
2012-11-14,-3.70, 4.04, 3.35, 1.89, 1.62, 7.30, repro,
2012-11-15,-3.41, 4.20, -1.37, 1.95, 1.64, 7.66, repro,
2012-11-16,-3.36, 3.79, 5.99, 1.89, 1.64, 7.45, repro,
2012-11-17,-4.25, 2.14, 7.88, 1.96, 1.67, 7.73, repro,
2012-11-18,-4.27, 3.14, 9.86, 1.95, 1.65, 7.58, repro,
2012-11-19,-4.18, 3.44, 9.72, 1.88, 1.62, 7.33, repro,
2012-11-20,-3.35, 4.25, 6.64, 1.92, 1.61, 7.55, repro,
2012-11-21,-3.66, 4.40, 12.76, 1.88, 1.57, 7.40, repro,
2012-11-22,-4.50, 4.63, 4.89, 1.85, 1.57, 7.28, repro,
2012-11-23,-3.65, 3.85, 2.95, 1.84, 1.55, 7.17, repro,
2012-11-24,-3.21, 4.21, 5.61, 1.86, 1.58, 7.27, repro,
2012-11-25,-3.92, 3.36, 14.62, 1.89, 1.62, 7.42, repro,
2012-11-26,-3.85, 4.13, 9.91, 1.90, 1.64, 7.44, repro,
2012-11-27,-3.61, 4.96, 2.91, 1.87, 1.60, 7.32, repro,
2012-11-28,-4.08, 3.13, 5.58, 1.92, 1.60, 7.53, repro,
2012-11-29,-4.76, 4.27, 8.11, 1.90, 1.62, 7.40, repro,
2012-11-30,-4.66, 3.66, 10.27, 1.87, 1.58, 7.27, repro,
2012-12-01,-3.72, 5.12, 12.05, 1.84, 1.56, 7.20, repro,
2012-12-02,-2.83, 4.10, 8.87, 1.87, 1.61, 7.31, repro,
2012-12-03,-5.52, 5.68, 8.00, 1.88, 1.59, 7.31, repro,
2012-12-04,-2.88, 3.61, 6.58, 1.84, 1.54, 7.13, repro,
2012-12-05,-4.12, 4.14, 9.94, 1.87, 1.58, 7.28, repro,
2012-12-06,-3.61, 4.48, 9.13, 1.90, 1.63, 7.45, repro,
2012-12-07,-5.26, 4.41, 13.67, 1.89, 1.63, 7.42, repro,
2012-12-08,-2.18, 4.59, 11.83, 1.85, 1.56, 7.20, repro,
2012-12-09,-3.59, 4.06, 9.71, 1.87, 1.59, 7.27, repro,
2012-12-10,-3.23, 3.75, 5.91, 1.86, 1.59, 7.24, repro,
2012-12-11,-3.19, 4.09, 12.22, 1.86, 1.60, 7.27, repro,
2012-12-12,-3.01, 3.48, 12.86, 1.88, 1.60, 7.30, repro,
2012-12-13,-4.92, 3.83, 12.49, 1.87, 1.60, 7.27, repro,
2012-12-14,-4.74, 3.20, 10.58, 1.87, 1.60, 7.28, repro,
2012-12-15,-4.38, 2.05, 11.54, 1.86, 1.61, 7.27, repro,
2012-12-16,-3.62, 3.29, 12.76, 1.85, 1.61, 7.28, repro,
2012-12-17,-2.79, 4.03, 13.32, 1.88, 1.64, 7.35, repro,
2012-12-18,-4.00, 4.08, 21.37, 1.87, 1.60, 7.25, repro,
2012-12-19,0.33, 0.06, 12.92, 1.96, 1.64, 7.67, repro,
2012-12-20,-3.30, 4.26, 5.65, 1.88, 1.64, 7.43, repro,
2012-12-21,-1.81, 4.29, 9.83, 1.83, 1.58, 7.21, repro,
2012-12-22,-2.81, 3.61, 8.90, 1.84, 1.61, 7.23, repro,
2012-12-23,-2.86, 4.03, 8.32, 1.83, 1.55, 7.10, repro,
2012-12-24,-2.36, 8.35, 3.80, 1.88, 1.61, 7.28, repro,
2012-12-25,-2.47, 3.31, 14.48, 1.87, 1.61, 7.29, repro,
2012-12-26,-2.71, 2.27, 6.89, 1.87, 1.60, 7.25, repro,